KF5CFW Weather Reports


time (UTC)temp
C
wind
direction
speed
KPH
gust
KPH
rain 1hr
cm
rain 24hr
cm
rain mn
cm
humidity
%
barometer
mb
20260504044520 20 154 0.0 1.6 0.00 0.00 0.00 54 1014.8
20260504043027 20 148 0.0 1.6 0.00 0.00 0.00 53 1015.0
20260504041522 20 167 0.0 1.6 0.00 0.00 0.00 52 1015.0
20260504040002 21 153 0.0 1.6 0.00 0.00 0.00 50 1015.1
20260504034502 21 152 0.0 1.6 0.00 0.00 0.00 50 1014.9
20260504033100 21 146 0.0 4.8 0.00 0.00 0.00 50 1014.9
20260504031623 21 144 0.0 1.6 0.00 0.00 0.00 50 1015.0
20260504030059 21 158 0.0 1.6 0.00 0.00 0.00 50 1014.8
20260504024604 21 152 0.0 3.2 0.00 0.00 0.00 49 1014.8
20260504023059 22 131 0.0 3.2 0.00 0.00 0.00 47 1014.7
20260504021558 22 145 0.0 1.6 0.00 0.00 0.00 46 1014.6
20260504020110 22 155 0.0 1.6 0.00 0.00 0.00 43 1014.7
20260504014557 22 148 0.0 3.2 0.00 0.00 0.00 42 1014.6
20260504013057 23 158 0.0 6.4 0.00 0.00 0.00 41 1014.4
20260504011556 23 167 0.0 1.6 0.00 0.00 0.00 41 1014.3
20260504010056 23 242 0.0 1.6 0.00 0.00 0.00 39 1014.3
20260504004555 24 157 0.0 3.2 0.00 0.00 0.00 38 1014.4
20260504003054 24 154 0.0 3.2 0.00 0.00 0.00 38 1014.3
20260504001555 25 201 0.0 4.8 0.00 0.00 0.00 37 1014.5
20260504000052 25 217 0.0 3.2 0.00 0.00 0.00 36 1014.5
20260503234615 25 155 0.0 4.8 0.00 0.00 0.00 36 1014.5
20260503233051 26 156 0.0 3.2 0.00 0.00 0.00 36 1014.8
20260503231549 26 164 0.0 3.2 0.00 0.00 0.00 35 1014.7
20260503230047 27 148 0.0 6.4 0.00 0.00 0.00 33 1014.9
20260503224546 27 148 0.0 3.2 0.00 0.00 0.00 33 1014.9
20260503223046 28 211 0.0 1.6 0.00 0.00 0.00 31 1014.9
20260503221554 29 224 0.0 1.6 0.00 0.00 0.00 30 1015.2
20260503220042 30 156 0.0 8.0 0.00 0.00 0.00 30 1015.4
20260503214539 30 165 0.0 3.2 0.00 0.00 0.00 31 1015.5
20260503213042 30 250 0.0 3.2 0.00 0.00 0.00 30 1015.7
20260503211538 30 278 0.0 1.6 0.00 0.00 0.00 28 1016.0
20260503210034 30 222 0.0 3.2 0.00 0.00 0.00 29 1016.3
20260503204533 30 70 0.0 3.2 0.00 0.00 0.00 30 1016.5
20260503203038 30 156 0.0 3.2 0.00 0.00 0.00 29 1016.9
20260503201528 30 71 0.0 1.6 0.00 0.00 0.00 30 1017.0
20260503200028 30 329 0.0 1.6 0.00 0.00 0.00 29 1017.2
20260503194525 31 272 0.0 1.6 0.00 0.00 0.00 29 1017.6
20260503193022 30 151 0.0 1.6 0.00 0.00 0.00 32 1017.8
20260503191527 30 142 0.0 3.2 0.00 0.00 0.00 32 1018.0
20260503190018 30 248 0.0 3.2 0.00 0.00 0.00 30 1018.3
20260503184517 30 256 0.0 6.4 0.00 0.00 0.00 30 1018.5
20260503183014 30 248 0.0 3.2 0.00 0.00 0.00 32 1018.7
20260503181507 29 203 0.0 3.2 0.00 0.00 0.00 35 1019.0
20260503180006 28 259 0.0 3.2 0.00 0.00 0.00 35 1019.3
20260503174503 28 240 0.0 1.6 0.00 0.00 0.00 39 1019.6
20260503173111 28 229 0.0 1.6 0.00 0.00 0.00 41 1019.8
20260503171559 27 236 0.0 3.2 0.00 0.00 0.00 42 1020.1
20260503110106 13 224 0.0 0.0 0.00 0.00 0.00 48 1019.4
20260503081537 13 224 0.0 0.0 0.00 0.00 0.00 57 1019.1
20260503071529 14 224 0.0 0.0 0.00 0.00 0.00 62 1019.5